Location: Unspecified
(0.0000°N, 0.0000°E)
Time: 10:48:53
(UTC+00:00)

Transit 4B - Pass Details

Date: 16 August 2024
Orbit: 947 x 1097 km, 32.4° (Epoch: 07 September)

Event Time Altitude Azimuth Distance (km) Brightness Sun altitude
Rises 19:16:46 0° 336° (NNW) 3,641 12.1 -17.6°
Reaches altitude 10° 19:21:20 10° 5° (N) 2,671 10.9 -18.8°
Maximum altitude 19:23:51 12° 28° (NNE) 2,491 10.5 -19.4°
Enters shadow 19:25:45 11° 46° (NE) 2,586 10.4 -19.8°
